Location: *
(41.7492°S, 135.4150°W)
Time: 22:26:42
(UTC+00:00)

Cosmos 2251 Rocket - Pass Details

Date: 20 September 2021
Orbit: 765 x 791 km, 74.0° (Epoch: 25 October)

Event Time Altitude Azimuth Distance (km) Brightness Sun altitude
Exits shadow 12:41:20 63° 240° (WSW) 867 3.5 -24.9°
Drops below altitude 10° 12:46:29 10° 166° (SSE) 2,339 6.4 -24.0°
Sets 12:48:55 0° 163° (SSE) 3,274 7.3 -23.6°
